Location: The Saddle
(36.8333°N, 80.3417°W)
Time: 05:38:49
(UTC-04:00)

Courier 1B - Pass Details

Date: 23 September 2024
Orbit: 962 x 1208 km, 28.3° (Epoch: 05 October)

Event Time Altitude Azimuth Distance (km) Brightness Sun altitude
Rises 14:49:29 0° 260° (W) 3,721 11.0 46.6°
Reaches altitude 10° 14:52:15 10° 253° (WSW) 2,801 10.6 46.2°
Maximum altitude 14:58:33 40° 186° (S) 1,518 10.0 45.4°
Drops below altitude 10° 15:05:13 10° 120° (ESE) 2,968 10.1 44.6°
Sets 15:08:14 0° 113° (ESE) 3,965 10.5 44.2°
